Tracking 29892 objects as of 21-Nov-2024
HD Live streaming from Space Station
objects crossing your sky now

CZ-4B DEB

Track CZ-4B DEB now!
10-day predictions


NORAD ID: 40533
Int'l Code: 2013-057F
Perigee: 585.9 km
Apogee: 845.2 km
Inclination: 74.9 °
Period: 98.9 minutes
Semi major axis: 7086 km
RCS: Unknown
Launch date: October 25, 2013
Source: People's Republic of China (PRC)
Launch site: Jiuquan Satellite Launch Center, China (JSC)

Note: This is SATELLITE DEBRIS
Your satellite tracking list
Your tracking list is empty




NASA's NSSDC Master Catalog

Two Line Element Set (TLE):
1 40533U 13057F   24324.45180303  .00008234  00000-0  15188-2 0  9992
2 40533  74.9214 113.1725 0182936  96.5054 265.6977 14.55286610509567
Source of the keplerian elements: AFSPC